Time,TemperatureF,DewpointF,PressureIn,WindDirection,WindDirectionDegrees,WindSpeedMPH,WindSpeedGustMPH,Humidity,HourlyPrecipIn,Conditions,Clouds,dailyrainin,SolarRadiationWatts/m^2,SoftwareType,DateUTC
2013-01-05 00:00:00,26.3,13.5,30.13,ENE,76,0.0,12.0,58,0.00,,,0.00,0,Wunderground v.1.15,2013-01-05 07:00:00,
2013-01-05 00:10:00,25.9,13.1,30.13,ENE,76,0.0,12.0,58,0.00,,,0.00,0,Wunderground v.1.15,2013-01-05 07:10:00,
2013-01-05 00:15:00,25.7,12.9,30.13,ENE,76,1.0,12.0,58,0.00,,,0.00,0,Wunderground v.1.15,2013-01-05 07:15:00,
2013-01-05 00:25:00,25.4,12.7,30.13,ENE,78,1.0,12.0,58,0.00,,,0.00,0,Wunderground v.1.15,2013-01-05 07:25:00,
2013-01-05 00:30:00,25.1,12.8,30.13,ENE,78,1.0,12.0,59,0.00,,,0.00,0,Wunderground v.1.15,2013-01-05 07:30:00,
2013-01-05 00:40:00,24.9,13.0,30.12,ESE,105,3.0,12.0,60,0.00,,,0.00,0,Wunderground v.1.15,2013-01-05 07:40:00,
2013-01-05 00:45:00,24.8,12.9,30.12,SE,136,4.0,12.0,60,0.00,,,0.00,0,Wunderground v.1.15,2013-01-05 07:45:00,
2013-01-05 00:50:00,24.9,13.3,30.12,SE,138,4.0,12.0,61,0.00,,,0.00,0,Wunderground v.1.15,2013-01-05 07:50:00,
2013-01-05 00:55:00,24.6,13.1,30.12,SSE,148,4.0,12.0,61,0.00,,,0.00,0,Wunderground v.1.15,2013-01-05 07:55:00,
2013-01-05 01:00:00,24.3,12.8,30.12,SSE,155,5.0,12.0,61,0.00,,,0.00,0,Wunderground v.1.15,2013-01-05 08:00:00,
2013-01-05 01:05:00,24.4,13.2,30.12,SSE,155,5.0,12.0,62,0.00,,,0.00,0,Wunderground v.1.15,2013-01-05 08:05:00,
2013-01-05 01:15:00,24.5,12.6,30.12,SSE,162,5.0,12.0,60,0.00,,,0.00,0,Wunderground v.1.15,2013-01-05 08:15:00,
2013-01-05 01:20:00,24.3,12.8,30.12,SSE,165,6.0,12.0,61,0.00,,,0.00,0,Wunderground v.1.15,2013-01-05 08:20:00,
2013-01-05 01:25:00,24.3,12.8,30.12,SSE,161,6.0,12.0,61,0.00,,,0.00,0,Wunderground v.1.15,2013-01-05 08:25:00,
2013-01-05 01:30:00,24.5,13.0,30.12,SSE,165,6.0,12.0,61,0.00,,,0.00,0,Wunderground v.1.15,2013-01-05 08:30:00,
2013-01-05 01:35:00,24.7,12.8,30.12,SSE,168,5.0,12.0,60,0.00,,,0.00,0,Wunderground v.1.15,2013-01-05 08:35:00,
2013-01-05 01:45:00,24.5,12.6,30.13,SSE,167,6.0,12.0,60,0.00,,,0.00,0,Wunderground v.1.15,2013-01-05 08:45:00,
2013-01-05 01:50:00,24.4,12.5,30.13,SSE,156,6.0,6.0,60,0.00,,,0.00,0,Wunderground v.1.15,2013-01-05 08:50:00,
2013-01-05 01:55:00,24.4,12.5,30.13,SSE,161,6.0,12.0,60,0.00,,,0.00,0,Wunderground v.1.15,2013-01-05 08:55:00,
2013-01-05 02:00:00,24.6,12.3,30.12,SSE,165,6.0,6.0,59,0.00,,,0.00,0,Wunderground v.1.15,2013-01-05 09:00:00,
2013-01-05 02:05:00,24.5,11.8,30.12,South,173,7.0,7.0,58,0.00,,,0.00,0,Wunderground v.1.15,2013-01-05 09:05:00,
2013-01-05 02:15:00,23.7,11.4,30.13,South,177,7.0,12.0,59,0.00,,,0.00,0,Wunderground v.1.15,2013-01-05 09:15:00,
2013-01-05 02:20:00,23.5,11.3,30.13,SE,143,7.0,12.0,59,0.00,,,0.00,0,Wunderground v.1.15,2013-01-05 09:20:00,
2013-01-05 02:25:00,23.5,11.3,30.13,SSE,163,7.0,12.0,59,0.00,,,0.00,0,Wunderground v.1.15,2013-01-05 09:25:00,
2013-01-05 02:30:00,23.5,11.3,30.13,SSE,162,7.0,7.0,59,0.00,,,0.00,0,Wunderground v.1.15,2013-01-05 09:30:00,
2013-01-05 02:35:00,23.6,11.0,30.13,SSE,166,6.0,12.0,58,0.00,,,0.00,0,Wunderground v.1.15,2013-01-05 09:35:00,
2013-01-05 02:40:00,23.8,11.2,30.13,SSE,166,7.0,7.0,58,0.00,,,0.00,0,Wunderground v.1.15,2013-01-05 09:40:00,
2013-01-05 02:50:00,23.8,10.4,30.13,SSE,159,6.0,6.0,56,0.00,,,0.00,0,Wunderground v.1.15,2013-01-05 09:50:00,
2013-01-05 02:55:00,23.9,10.5,30.13,SSE,161,6.0,12.0,56,0.00,,,0.00,0,Wunderground v.1.15,2013-01-05 09:55:00,
2013-01-05 03:00:00,23.9,10.5,30.13,SSE,161,6.0,6.0,56,0.00,,,0.00,0,Wunderground v.1.15,2013-01-05 10:00:00,
2013-01-05 03:05:00,23.9,10.5,30.13,SSE,165,6.0,12.0,56,0.00,,,0.00,0,Wunderground v.1.15,2013-01-05 10:05:00,
2013-01-05 03:10:00,23.8,10.4,30.13,South,180,5.0,12.0,56,0.00,,,0.00,0,Wunderground v.1.15,2013-01-05 10:10:00,
2013-01-05 03:15:00,23.7,10.3,30.13,SSE,166,5.0,12.0,56,0.00,,,0.00,0,Wunderground v.1.15,2013-01-05 10:15:00,
2013-01-05 03:20:00,23.6,10.2,30.13,SSE,161,5.0,5.0,56,0.00,,,0.00,0,Wunderground v.1.15,2013-01-05 10:20:00,
2013-01-05 03:25:00,23.7,10.3,30.13,South,170,5.0,12.0,56,0.00,,,0.00,0,Wunderground v.1.15,2013-01-05 10:25:00,
2013-01-05 03:30:00,23.8,10.4,30.13,SSE,167,5.0,5.0,56,0.00,,,0.00,0,Wunderground v.1.15,2013-01-05 10:30:00,
2013-01-05 03:35:00,23.9,10.5,30.13,SSE,167,4.0,12.0,56,0.00,,,0.00,0,Wunderground v.1.15,2013-01-05 10:35:00,
2013-01-05 03:40:00,24.3,10.4,30.13,SSE,167,4.0,12.0,55,0.00,,,0.00,0,Wunderground v.1.15,2013-01-05 10:40:00,
2013-01-05 03:50:00,24.2,10.3,30.14,SSE,167,4.0,12.0,55,0.00,,,0.00,0,Wunderground v.1.15,2013-01-05 10:50:00,
2013-01-05 03:55:00,24.2,10.3,30.14,SSE,167,4.0,12.0,55,0.00,,,0.00,0,Wunderground v.1.15,2013-01-05 10:55:00,
2013-01-05 04:00:00,24.2,10.3,30.15,SSE,167,4.0,12.0,55,0.00,,,0.00,0,Wunderground v.1.15,2013-01-05 11:00:00,
2013-01-05 04:05:00,24.2,10.3,30.15,SSE,167,3.0,12.0,55,0.00,,,0.00,0,Wunderground v.1.15,2013-01-05 11:05:00,
2013-01-05 04:10:00,24.1,10.2,30.15,SSE,167,3.0,12.0,55,0.00,,,0.00,0,Wunderground v.1.15,2013-01-05 11:10:00,
2013-01-05 04:15:00,23.8,10.4,30.15,SSE,167,3.0,12.0,56,0.00,,,0.00,0,Wunderground v.1.15,2013-01-05 11:15:00,
2013-01-05 04:25:00,23.8,10.4,30.15,SSE,167,2.0,12.0,56,0.00,,,0.00,0,Wunderground v.1.15,2013-01-05 11:25:00,
2013-01-05 04:30:00,23.7,10.3,30.15,SSE,167,2.0,2.0,56,0.00,,,0.00,0,Wunderground v.1.15,2013-01-05 11:30:00,
2013-01-05 04:35:00,23.5,10.1,30.16,SSE,167,2.0,12.0,56,0.00,,,0.00,0,Wunderground v.1.15,2013-01-05 11:35:00,
2013-01-05 04:40:00,23.4,10.4,30.16,SSE,167,2.0,12.0,57,0.00,,,0.00,0,Wunderground v.1.15,2013-01-05 11:40:00,
2013-01-05 04:45:00,23.3,10.3,30.16,SSE,167,2.0,12.0,57,0.00,,,0.00,0,Wunderground v.1.15,2013-01-05 11:45:00,
2013-01-05 04:55:00,22.4,10.2,30.16,SSE,167,1.0,12.0,59,0.00,,,0.00,0,Wunderground v.1.15,2013-01-05 11:55:00,
2013-01-05 05:00:00,21.8,10.4,30.17,SSE,167,1.0,12.0,61,0.00,,,0.00,0,Wunderground v.1.15,2013-01-05 12:00:00,
2013-01-05 05:05:00,21.6,10.6,30.17,SSE,167,1.0,12.0,62,0.00,,,0.00,0,Wunderground v.1.15,2013-01-05 12:05:00,
2013-01-05 05:10:00,22.1,10.3,30.17,SSE,167,3.0,12.0,60,0.00,,,0.00,0,Wunderground v.1.15,2013-01-05 12:10:00,
2013-01-05 05:15:00,22.3,10.5,30.17,SSE,167,3.0,12.0,60,0.00,,,0.00,0,Wunderground v.1.15,2013-01-05 12:15:00,
2013-01-05 05:20:00,22.3,10.1,30.17,SSE,167,3.0,3.0,59,0.00,,,0.00,0,Wunderground v.1.15,2013-01-05 12:20:00,
2013-01-05 05:30:00,21.9,10.1,30.17,SSE,167,3.0,12.0,60,0.00,,,0.00,0,Wunderground v.1.15,2013-01-05 12:30:00,
2013-01-05 05:35:00,21.9,10.1,30.18,SSE,167,4.0,12.0,60,0.00,,,0.00,0,Wunderground v.1.15,2013-01-05 12:35:00,
2013-01-05 05:40:00,22.1,9.9,30.18,SSE,167,5.0,5.0,59,0.00,,,0.00,0,Wunderground v.1.15,2013-01-05 12:40:00,
2013-01-05 05:45:00,22.2,10.0,30.18,SSE,167,5.0,12.0,59,0.00,,,0.00,0,Wunderground v.1.15,2013-01-05 12:45:00,
2013-01-05 05:50:00,22.4,9.8,30.18,SSE,167,5.0,12.0,58,0.00,,,0.00,0,Wunderground v.1.15,2013-01-05 12:50:00,
2013-01-05 06:00:00,22.6,9.6,30.19,SSE,167,4.0,12.0,57,0.00,,,0.00,0,Wunderground v.1.15,2013-01-05 13:00:00,
2013-01-05 06:05:00,22.3,9.7,30.20,SSE,165,4.0,12.0,58,0.00,,,0.00,0,Wunderground v.1.15,2013-01-05 13:05:00,
2013-01-05 06:10:00,22.3,9.4,30.20,SSE,168,5.0,12.0,57,0.00,,,0.00,0,Wunderground v.1.15,2013-01-05 13:10:00,
2013-01-05 06:15:00,22.3,9.4,30.20,South,169,5.0,12.0,57,0.00,,,0.00,0,Wunderground v.1.15,2013-01-05 13:15:00,
2013-01-05 06:20:00,22.4,9.4,30.20,SSE,167,5.0,12.0,57,0.00,,,0.00,0,Wunderground v.1.15,2013-01-05 13:20:00,
2013-01-05 06:30:00,22.6,9.2,30.21,SSE,168,5.0,12.0,56,0.00,,,0.00,0,Wunderground v.1.15,2013-01-05 13:30:00,
2013-01-05 06:35:00,22.7,9.3,30.21,SSE,167,5.0,12.0,56,0.00,,,0.00,0,Wunderground v.1.15,2013-01-05 13:35:00,
2013-01-05 06:40:00,22.8,9.0,30.21,South,173,6.0,6.0,55,0.00,,,0.00,0,Wunderground v.1.15,2013-01-05 13:40:00,
2013-01-05 06:45:00,22.8,9.0,30.22,South,173,6.0,12.0,55,0.00,,,0.00,0,Wunderground v.1.15,2013-01-05 13:45:00,
2013-01-05 06:50:00,22.7,8.9,30.22,South,176,6.0,6.0,55,0.00,,,0.00,0,Wunderground v.1.15,2013-01-05 13:50:00,
2013-01-05 06:55:00,22.6,9.2,30.22,SSE,165,6.0,12.0,56,0.00,,,0.00,0,Wunderground v.1.15,2013-01-05 13:55:00,
2013-01-05 07:05:00,22.4,9.1,30.23,South,171,6.0,12.0,56,0.00,,,0.00,0,Wunderground v.1.15,2013-01-05 14:05:00,
2013-01-05 07:10:00,22.4,9.1,30.23,SSE,159,6.0,12.0,56,0.00,,,0.00,0,Wunderground v.1.15,2013-01-05 14:10:00,
2013-01-05 07:15:00,22.6,8.8,30.23,SSE,168,5.0,12.0,55,0.00,,,0.00,0,Wunderground v.1.15,2013-01-05 14:15:00,
2013-01-05 07:20:00,22.7,8.5,30.24,SSE,167,5.0,5.0,54,0.00,,,0.00,0,Wunderground v.1.15,2013-01-05 14:20:00,
2013-01-05 07:25:00,22.6,8.4,30.24,SSE,167,5.0,12.0,54,0.00,,,0.00,5,Wunderground v.1.15,2013-01-05 14:25:00,
2013-01-05 07:35:00,22.4,8.7,30.25,SSE,164,4.0,12.0,55,0.00,,,0.00,11,Wunderground v.1.15,2013-01-05 14:35:00,
2013-01-05 07:40:00,22.3,8.6,30.25,South,173,5.0,5.0,55,0.00,,,0.00,11,Wunderground v.1.15,2013-01-05 14:40:00,
2013-01-05 07:45:00,22.3,8.6,30.25,South,171,5.0,12.0,55,0.00,,,0.00,14,Wunderground v.1.15,2013-01-05 14:45:00,
2013-01-05 07:50:00,22.4,8.7,30.26,SSE,167,5.0,12.0,55,0.00,,,0.00,28,Wunderground v.1.15,2013-01-05 14:50:00,
2013-01-05 07:55:00,22.8,8.6,30.26,SSE,164,6.0,12.0,54,0.00,,,0.00,51,Wunderground v.1.15,2013-01-05 14:55:00,
2013-01-05 08:00:00,23.2,8.6,30.26,South,173,6.0,6.0,53,0.00,,,0.00,62,Wunderground v.1.15,2013-01-05 15:00:00,
2013-01-05 08:10:00,23.9,8.4,30.26,SSE,166,5.0,12.0,51,0.00,,,0.00,86,Wunderground v.1.15,2013-01-05 15:10:00,
2013-01-05 08:20:00,24.4,8.4,30.27,South,171,5.0,12.0,50,0.00,,,0.00,111,Wunderground v.1.15,2013-01-05 15:20:00,
2013-01-05 08:25:00,24.7,8.7,30.27,South,175,5.0,12.0,50,0.00,,,0.00,123,Wunderground v.1.15,2013-01-05 15:25:00,
2013-01-05 08:30:00,25.2,8.2,30.27,SSE,165,5.0,12.0,48,0.00,,,0.00,134,Wunderground v.1.15,2013-01-05 15:30:00,
2013-01-05 08:40:00,26.2,8.7,30.27,SSE,164,5.0,5.0,47,0.00,,,0.00,156,Wunderground v.1.15,2013-01-05 15:40:00,
2013-01-05 08:45:00,26.8,8.8,30.28,South,172,4.0,12.0,46,0.00,,,0.00,169,Wunderground v.1.15,2013-01-05 15:45:00,
2013-01-05 08:50:00,27.2,8.6,30.28,South,171,3.0,12.0,45,0.00,,,0.00,181,Wunderground v.1.15,2013-01-05 15:50:00,
2013-01-05 08:55:00,27.2,9.1,30.28,South,173,4.0,12.0,46,0.00,,,0.00,192,Wunderground v.1.15,2013-01-05 15:55:00,
2013-01-05 09:00:00,27.4,9.3,30.28,South,182,4.0,12.0,46,0.00,,,0.00,204,Wunderground v.1.15,2013-01-05 16:00:00,
2013-01-05 09:10:00,28.1,9.5,30.28,South,173,4.0,12.0,45,0.00,,,0.00,225,Wunderground v.1.15,2013-01-05 16:10:00,
2013-01-05 09:15:00,28.3,9.6,30.29,South,176,5.0,12.0,45,0.00,,,0.00,236,Wunderground v.1.15,2013-01-05 16:15:00,
2013-01-05 09:20:00,28.6,9.9,30.29,SSE,167,5.0,12.0,45,0.00,,,0.00,246,Wunderground v.1.15,2013-01-05 16:20:00,
2013-01-05 09:25:00,28.9,9.7,30.29,South,175,5.0,12.0,44,0.00,,,0.00,258,Wunderground v.1.15,2013-01-05 16:25:00,
2013-01-05 09:30:00,29.2,9.4,30.29,SSE,166,5.0,12.0,43,0.00,,,0.00,269,Wunderground v.1.15,2013-01-05 16:30:00,
2013-01-05 09:35:00,29.8,8.9,30.29,South,171,5.0,12.0,41,0.00,,,0.00,278,Wunderground v.1.15,2013-01-05 16:35:00,
2013-01-05 09:45:00,31.1,10.1,30.30,South,173,3.0,12.0,41,0.00,,,0.00,299,Wunderground v.1.15,2013-01-05 16:45:00,
2013-01-05 09:50:00,31.5,9.9,30.29,South,173,3.0,12.0,40,0.00,,,0.00,309,Wunderground v.1.15,2013-01-05 16:50:00,
2013-01-05 09:55:00,31.7,9.5,30.29,South,182,4.0,12.0,39,0.00,,,0.00,318,Wunderground v.1.15,2013-01-05 16:55:00,
2013-01-05 10:00:00,32.4,10.2,30.29,South,184,4.0,4.0,39,0.00,,,0.00,327,Wunderground v.1.15,2013-01-05 17:00:00,
2013-01-05 10:05:00,33.2,10.3,30.30,South,184,3.0,12.0,38,0.00,,,0.00,336,Wunderground v.1.15,2013-01-05 17:05:00,
2013-01-05 10:15:00,34.9,10.6,30.30,South,184,2.0,12.0,36,0.00,,,0.00,352,Wunderground v.1.15,2013-01-05 17:15:00,
2013-01-05 10:20:00,35.7,10.7,30.30,South,184,1.0,12.0,35,0.00,,,0.00,360,Wunderground v.1.15,2013-01-05 17:20:00,
2013-01-05 10:25:00,36.3,10.6,30.30,SSW,204,2.0,12.0,34,0.00,,,0.00,367,Wunderground v.1.15,2013-01-05 17:25:00,
2013-01-05 10:30:00,36.6,10.2,30.30,SSW,204,2.0,12.0,33,0.00,,,0.00,374,Wunderground v.1.15,2013-01-05 17:30:00,
2013-01-05 10:35:00,36.9,10.4,30.30,SSW,206,2.0,12.0,33,0.00,,,0.00,381,Wunderground v.1.15,2013-01-05 17:35:00,
2013-01-05 10:45:00,37.8,10.5,30.30,SSW,213,2.0,12.0,32,0.00,,,0.00,394,Wunderground v.1.15,2013-01-05 17:45:00,
2013-01-05 10:50:00,37.5,10.3,30.29,SSW,213,3.0,3.0,32,0.00,,,0.00,399,Wunderground v.1.15,2013-01-05 17:50:00,
2013-01-05 10:55:00,37.6,11.0,30.29,SSW,213,3.0,12.0,33,0.00,,,0.00,404,Wunderground v.1.15,2013-01-05 17:55:00,
2013-01-05 11:05:00,38.3,11.0,30.29,SW,215,3.0,4.0,32,0.00,,,0.00,415,Wunderground v.1.15,2013-01-05 18:05:00,
2013-01-05 11:10:00,38.8,11.4,30.28,SW,215,3.0,3.0,32,0.00,,,0.00,420,Wunderground v.1.15,2013-01-05 18:10:00,
2013-01-05 11:20:00,39.5,12.0,30.28,SW,214,3.0,12.0,32,0.00,,,0.00,427,Wunderground v.1.15,2013-01-05 18:20:00,
2013-01-05 11:25:00,39.7,12.9,30.27,SSW,210,3.0,12.0,33,0.00,,,0.00,429,Wunderground v.1.15,2013-01-05 18:25:00,
2013-01-05 11:30:00,40.1,12.6,30.27,SSW,210,2.0,2.0,32,0.00,,,0.00,432,Wunderground v.1.15,2013-01-05 18:30:00,
2013-01-05 11:40:00,41.0,13.4,30.26,South,188,3.0,12.0,32,0.00,,,0.00,436,Wunderground v.1.15,2013-01-05 18:40:00,
2013-01-05 11:50:00,41.4,13.0,30.25,SSW,198,3.0,3.0,31,0.00,,,0.00,438,Wunderground v.1.15,2013-01-05 18:50:00,
2013-01-05 12:00:00,41.4,13.0,30.24,South,189,5.0,12.0,31,0.00,,,0.00,441,Wunderground v.1.15,2013-01-05 19:00:00,
2013-01-05 12:05:00,40.8,13.2,30.24,SSW,196,6.0,12.0,32,0.00,,,0.00,439,Wunderground v.1.15,2013-01-05 19:05:00,
2013-01-05 12:10:00,40.9,13.3,30.25,South,169,5.0,12.0,32,0.00,,,0.00,441,Wunderground v.1.15,2013-01-05 19:10:00,
2013-01-05 12:20:00,41.2,13.5,30.24,SSW,195,6.0,6.0,32,0.00,,,0.00,439,Wunderground v.1.15,2013-01-05 19:20:00,
2013-01-05 12:25:00,40.7,13.1,30.24,South,170,6.0,7.0,32,0.00,,,0.00,439,Wunderground v.1.15,2013-01-05 19:25:00,
2013-01-05 12:30:00,40.6,13.7,30.24,SE,132,8.0,8.0,33,0.00,,,0.00,438,Wunderground v.1.15,2013-01-05 19:30:00,
2013-01-05 12:35:00,41.5,14.5,30.23,SE,132,6.0,12.0,33,0.00,,,0.00,432,Wunderground v.1.15,2013-01-05 19:35:00,
2013-01-05 12:40:00,41.8,14.1,30.23,South,188,5.0,12.0,32,0.00,,,0.00,432,Wunderground v.1.15,2013-01-05 19:40:00,
2013-01-05 12:45:00,41.7,13.2,30.23,SSE,168,6.0,12.0,31,0.00,,,0.00,429,Wunderground v.1.15,2013-01-05 19:45:00,
2013-01-05 12:55:00,42.9,15.0,30.23,ESE,110,4.0,12.0,32,0.00,,,0.00,422,Wunderground v.1.15,2013-01-05 19:55:00,
2013-01-05 13:00:00,43.5,14.1,30.23,South,169,3.0,12.0,30,0.00,,,0.00,422,Wunderground v.1.15,2013-01-05 20:00:00,
2013-01-05 13:05:00,42.7,13.4,30.23,SE,139,4.0,12.0,30,0.00,,,0.00,415,Wunderground v.1.15,2013-01-05 20:05:00,
2013-01-05 13:10:00,42.9,14.3,30.23,ESE,121,6.0,12.0,31,0.00,,,0.00,410,Wunderground v.1.15,2013-01-05 20:10:00,
2013-01-05 13:15:00,42.4,13.9,30.23,East,82,5.0,12.0,31,0.00,,,0.00,403,Wunderground v.1.15,2013-01-05 20:15:00,
2013-01-05 13:20:00,42.2,13.7,30.23,ESE,119,5.0,5.0,31,0.00,,,0.00,397,Wunderground v.1.15,2013-01-05 20:20:00,
2013-01-05 13:25:00,41.9,13.4,30.24,ESE,115,6.0,9.0,31,0.00,,,0.00,394,Wunderground v.1.15,2013-01-05 20:25:00,
2013-01-05 13:30:00,41.5,13.1,30.24,East,81,6.0,12.0,31,0.00,,,0.00,385,Wunderground v.1.15,2013-01-05 20:30:00,
2013-01-05 13:35:00,41.2,12.8,30.24,NNE,24,6.0,12.0,31,0.00,,,0.00,380,Wunderground v.1.15,2013-01-05 20:35:00,
2013-01-05 13:40:00,41.9,13.4,30.24,East,84,4.0,4.0,31,0.00,,,0.00,374,Wunderground v.1.15,2013-01-05 20:40:00,
2013-01-05 13:45:00,41.8,12.6,30.24,ESE,105,4.0,12.0,30,0.00,,,0.00,367,Wunderground v.1.15,2013-01-05 20:45:00,
2013-01-05 13:55:00,42.4,13.9,30.25,ESE,103,2.0,12.0,31,0.00,,,0.00,352,Wunderground v.1.15,2013-01-05 20:55:00,
2013-01-05 14:00:00,42.0,12.0,30.25,NE,53,3.0,12.0,29,0.00,,,0.00,343,Wunderground v.1.15,2013-01-05 21:00:00,
2013-01-05 14:05:00,41.5,13.1,30.25,ENE,71,5.0,12.0,31,0.00,,,0.00,336,Wunderground v.1.15,2013-01-05 21:05:00,
2013-01-05 14:10:00,41.6,13.2,30.26,ENE,76,4.0,12.0,31,0.00,,,0.00,325,Wunderground v.1.15,2013-01-05 21:10:00,
2013-01-05 14:20:00,43.2,13.8,30.27,ESE,111,2.0,12.0,30,0.00,,,0.00,309,Wunderground v.1.15,2013-01-05 21:20:00,
2013-01-05 14:30:00,42.7,14.1,30.27,ESE,107,3.0,12.0,31,0.00,,,0.00,287,Wunderground v.1.15,2013-01-05 21:30:00,
2013-01-05 14:35:00,42.8,13.5,30.27,ESE,105,2.0,12.0,30,0.00,,,0.00,278,Wunderground v.1.15,2013-01-05 21:35:00,
2013-01-05 14:40:00,42.7,14.1,30.28,East,84,2.0,2.0,31,0.00,,,0.00,267,Wunderground v.1.15,2013-01-05 21:40:00,
2013-01-05 14:45:00,43.1,14.5,30.28,East,84,2.0,12.0,31,0.00,,,0.00,258,Wunderground v.1.15,2013-01-05 21:45:00,
2013-01-05 14:50:00,43.0,14.4,30.28,SE,138,2.0,2.0,31,0.00,,,0.00,248,Wunderground v.1.15,2013-01-05 21:50:00,
2013-01-05 15:00:00,42.1,13.6,30.29,ESE,105,3.0,12.0,31,0.00,,,0.00,225,Wunderground v.1.15,2013-01-05 22:00:00,
2013-01-05 15:05:00,41.1,14.1,30.29,ESE,111,5.0,12.0,33,0.00,,,0.00,213,Wunderground v.1.15,2013-01-05 22:05:00,
2013-01-05 15:10:00,40.8,14.6,30.29,East,101,4.0,12.0,34,0.00,,,0.00,202,Wunderground v.1.15,2013-01-05 22:10:00,
2013-01-05 15:15:00,41.0,14.7,30.29,ESE,103,3.0,12.0,34,0.00,,,0.00,192,Wunderground v.1.15,2013-01-05 22:15:00,
2013-01-05 15:20:00,41.6,15.3,30.29,ESE,103,2.0,12.0,34,0.00,,,0.00,181,Wunderground v.1.15,2013-01-05 22:20:00,
2013-01-05 15:30:00,41.9,15.5,30.30,ESE,112,2.0,2.0,34,0.00,,,0.00,156,Wunderground v.1.15,2013-01-05 22:30:00,
2013-01-05 15:35:00,42.2,15.1,30.30,SSE,150,2.0,6.0,33,0.00,,,0.00,146,Wunderground v.1.15,2013-01-05 22:35:00,
2013-01-05 15:40:00,41.2,14.9,30.30,SSE,153,4.0,12.0,34,0.00,,,0.00,134,Wunderground v.1.15,2013-01-05 22:40:00,
2013-01-05 15:45:00,40.8,14.6,30.30,SSE,168,5.0,12.0,34,0.00,,,0.00,123,Wunderground v.1.15,2013-01-05 22:45:00,
2013-01-05 15:50:00,40.5,14.3,30.30,South,173,5.0,5.0,34,0.00,,,0.00,105,Wunderground v.1.15,2013-01-05 22:50:00,
2013-01-05 16:00:00,40.2,14.7,30.30,South,174,4.0,4.0,35,0.00,,,0.00,88,Wunderground v.1.15,2013-01-05 23:00:00,
2013-01-05 16:05:00,39.7,14.2,30.30,South,173,5.0,7.0,35,0.00,,,0.00,23,Wunderground v.1.15,2013-01-05 23:05:00,
2013-01-05 16:10:00,39.5,14.7,30.30,South,175,5.0,12.0,36,0.00,,,0.00,63,Wunderground v.1.15,2013-01-05 23:10:00,
2013-01-05 16:20:00,39.6,14.8,30.31,SE,136,3.0,12.0,36,0.00,,,0.00,40,Wunderground v.1.15,2013-01-05 23:20:00,
2013-01-05 16:25:00,39.6,15.4,30.31,SE,126,2.0,12.0,37,0.00,,,0.00,32,Wunderground v.1.15,2013-01-05 23:25:00,
2013-01-05 16:35:00,39.3,15.2,30.32,SE,127,3.0,12.0,37,0.00,,,0.00,14,Wunderground v.1.15,2013-01-05 23:35:00,
2013-01-05 16:40:00,39.0,15.5,30.32,SE,144,3.0,12.0,38,0.00,,,0.00,9,Wunderground v.1.15,2013-01-05 23:40:00,
2013-01-05 16:45:00,38.8,15.3,30.32,SSE,163,3.0,12.0,38,0.00,,,0.00,7,Wunderground v.1.15,2013-01-05 23:45:00,
2013-01-05 16:50:00,38.6,15.1,30.32,South,169,4.0,4.0,38,0.00,,,0.00,5,Wunderground v.1.15,2013-01-05 23:50:00,
2013-01-05 16:55:00,38.5,15.7,30.32,South,173,3.0,12.0,39,0.00,,,0.00,0,Wunderground v.1.15,2013-01-05 23:55:00,
2013-01-05 17:05:00,38.4,15.6,30.33,South,173,4.0,12.0,39,0.00,,,0.00,0,Wunderground v.1.15,2013-01-06 00:05:00,
2013-01-05 17:10:00,38.3,15.5,30.33,South,173,3.0,12.0,39,0.00,,,0.00,0,Wunderground v.1.15,2013-01-06 00:10:00,
2013-01-05 17:15:00,38.2,16.0,30.33,South,173,3.0,12.0,40,0.00,,,0.00,0,Wunderground v.1.15,2013-01-06 00:15:00,
2013-01-05 17:20:00,38.1,15.9,30.33,South,173,2.0,12.0,40,0.00,,,0.00,0,Wunderground v.1.15,2013-01-06 00:20:00,
2013-01-05 17:30:00,37.8,16.2,30.33,South,173,2.0,12.0,41,0.00,,,0.00,0,Wunderground v.1.15,2013-01-06 00:30:00,
2013-01-05 17:35:00,37.7,16.1,30.34,South,173,3.0,12.0,41,0.00,,,0.00,0,Wunderground v.1.15,2013-01-06 00:35:00,
2013-01-05 17:40:00,37.5,16.5,30.34,South,173,3.0,3.0,42,0.00,,,0.00,0,Wunderground v.1.15,2013-01-06 00:40:00,
2013-01-05 17:45:00,37.4,15.8,30.34,South,173,3.0,12.0,41,0.00,,,0.00,0,Wunderground v.1.15,2013-01-06 00:45:00,
2013-01-05 17:50:00,37.3,16.3,30.34,South,173,3.0,3.0,42,0.00,,,0.00,0,Wunderground v.1.15,2013-01-06 00:50:00,
2013-01-05 17:55:00,37.2,16.2,30.34,South,173,3.0,12.0,42,0.00,,,0.00,0,Wunderground v.1.15,2013-01-06 00:55:00,
2013-01-05 18:00:00,37.0,16.0,30.34,South,173,3.0,3.0,42,0.00,,,0.00,0,Wunderground v.1.15,2013-01-06 01:00:00,
2013-01-05 18:10:00,36.7,15.7,30.35,South,173,3.0,3.0,42,0.00,,,0.00,0,Wunderground v.1.15,2013-01-06 01:10:00,
2013-01-05 18:15:00,36.4,16.0,30.34,South,173,3.0,12.0,43,0.00,,,0.00,0,Wunderground v.1.15,2013-01-06 01:15:00,
2013-01-05 18:20:00,36.2,16.4,30.34,South,173,2.0,2.0,44,0.00,,,0.00,0,Wunderground v.1.15,2013-01-06 01:20:00,
2013-01-05 18:25:00,35.8,16.0,30.34,South,173,1.0,3.0,44,0.00,,,0.00,0,Wunderground v.1.15,2013-01-06 01:25:00,
2013-01-05 18:35:00,35.2,16.0,30.34,South,173,4.0,12.0,45,0.00,,,0.00,0,Wunderground v.1.15,2013-01-06 01:35:00,
2013-01-05 18:45:00,34.7,16.0,30.34,South,173,4.0,12.0,46,0.00,,,0.00,0,Wunderground v.1.15,2013-01-06 01:45:00,
2013-01-05 18:50:00,34.4,16.2,30.34,South,173,4.0,12.0,47,0.00,,,0.00,0,Wunderground v.1.15,2013-01-06 01:50:00,
2013-01-05 18:55:00,34.1,15.9,30.34,South,172,4.0,12.0,47,0.00,,,0.00,0,Wunderground v.1.15,2013-01-06 01:55:00,
2013-01-05 19:00:00,33.8,16.2,30.34,South,175,5.0,12.0,48,0.00,,,0.00,0,Wunderground v.1.15,2013-01-06 02:00:00,
2013-01-05 19:10:00,33.3,16.2,30.33,South,179,4.0,12.0,49,0.00,,,0.00,0,Wunderground v.1.15,2013-01-06 02:10:00,
2013-01-05 19:15:00,32.9,15.8,30.33,South,179,5.0,12.0,49,0.00,,,0.00,0,Wunderground v.1.15,2013-01-06 02:15:00,
2013-01-05 19:20:00,32.7,16.1,30.33,South,178,5.0,12.0,50,0.00,,,0.00,0,Wunderground v.1.15,2013-01-06 02:20:00,
2013-01-05 19:25:00,32.5,15.9,30.33,South,169,5.0,12.0,50,0.00,,,0.00,0,Wunderground v.1.15,2013-01-06 02:25:00,
2013-01-05 19:30:00,32.2,16.1,30.33,South,173,5.0,12.0,51,0.00,,,0.00,0,Wunderground v.1.15,2013-01-06 02:30:00,
2013-01-05 19:40:00,31.8,16.2,30.33,South,179,6.0,12.0,52,0.00,,,0.00,0,Wunderground v.1.15,2013-01-06 02:40:00,
2013-01-05 19:45:00,31.5,15.9,30.33,South,188,6.0,12.0,52,0.00,,,0.00,0,Wunderground v.1.15,2013-01-06 02:45:00,
2013-01-05 19:50:00,31.4,16.2,30.34,South,178,6.0,12.0,53,0.00,,,0.00,0,Wunderground v.1.15,2013-01-06 02:50:00,
2013-01-05 19:55:00,31.0,16.3,30.34,South,180,6.0,12.0,54,0.00,,,0.00,0,Wunderground v.1.15,2013-01-06 02:55:00,
2013-01-05 20:00:00,30.8,16.5,30.34,South,183,5.0,5.0,55,0.00,,,0.00,0,Wunderground v.1.15,2013-01-06 03:00:00,
2013-01-05 20:05:00,30.5,16.7,30.33,South,182,4.0,12.0,56,0.00,,,0.00,0,Wunderground v.1.15,2013-01-06 03:05:00,
2013-01-05 20:15:00,29.9,16.5,30.34,South,178,4.0,12.0,57,0.00,,,0.00,0,Wunderground v.1.15,2013-01-06 03:15:00,
2013-01-05 20:20:00,29.8,16.4,30.34,South,176,4.0,4.0,57,0.00,,,0.00,0,Wunderground v.1.15,2013-01-06 03:20:00,
2013-01-05 20:25:00,29.6,16.2,30.34,South,176,4.0,12.0,57,0.00,,,0.00,0,Wunderground v.1.15,2013-01-06 03:25:00,
2013-01-05 20:30:00,29.4,16.4,30.34,South,176,4.0,4.0,58,0.00,,,0.00,0,Wunderground v.1.15,2013-01-06 03:30:00,
2013-01-05 20:35:00,29.2,16.2,30.34,South,176,3.0,12.0,58,0.00,,,0.00,0,Wunderground v.1.15,2013-01-06 03:35:00,
2013-01-05 20:45:00,29.0,16.1,30.34,South,181,2.0,12.0,58,0.00,,,0.00,0,Wunderground v.1.15,2013-01-06 03:45:00,
2013-01-05 20:50:00,28.9,16.0,30.34,South,181,2.0,12.0,58,0.00,,,0.00,0,Wunderground v.1.15,2013-01-06 03:50:00,
2013-01-05 20:55:00,28.9,16.0,30.34,South,181,2.0,12.0,58,0.00,,,0.00,0,Wunderground v.1.15,2013-01-06 03:55:00,
2013-01-05 21:00:00,29.0,16.4,30.34,South,181,2.0,12.0,59,0.00,,,0.00,0,Wunderground v.1.15,2013-01-06 04:00:00,
2013-01-05 21:05:00,29.0,16.4,30.34,South,181,2.0,12.0,59,0.00,,,0.00,0,Wunderground v.1.15,2013-01-06 04:05:00,
2013-01-05 21:10:00,28.9,16.4,30.34,South,181,3.0,12.0,59,0.00,,,0.00,0,Wunderground v.1.15,2013-01-06 04:10:00,
2013-01-05 21:20:00,28.8,16.3,30.34,South,181,2.0,12.0,59,0.00,,,0.00,0,Wunderground v.1.15,2013-01-06 04:20:00,
2013-01-05 21:25:00,28.5,16.4,30.34,South,181,3.0,12.0,60,0.00,,,0.00,0,Wunderground v.1.15,2013-01-06 04:25:00,
2013-01-05 21:30:00,28.3,16.2,30.34,South,181,3.0,12.0,60,0.00,,,0.00,0,Wunderground v.1.15,2013-01-06 04:30:00,
2013-01-05 21:35:00,28.1,16.0,30.34,South,181,3.0,12.0,60,0.00,,,0.00,0,Wunderground v.1.15,2013-01-06 04:35:00,
2013-01-05 21:40:00,28.1,16.0,30.34,South,181,3.0,12.0,60,0.00,,,0.00,0,Wunderground v.1.15,2013-01-06 04:40:00,
2013-01-05 21:50:00,28.2,16.1,30.33,South,180,4.0,12.0,60,0.00,,,0.00,0,Wunderground v.1.15,2013-01-06 04:50:00,
2013-01-05 21:55:00,28.2,16.1,30.34,South,180,3.0,12.0,60,0.00,,,0.00,0,Wunderground v.1.15,2013-01-06 04:55:00,
2013-01-05 22:00:00,28.3,16.2,30.34,South,180,3.0,3.0,60,0.00,,,0.00,0,Wunderground v.1.15,2013-01-06 05:00:00,
2013-01-05 22:10:00,28.1,16.0,30.34,South,176,3.0,12.0,60,0.00,,,0.00,0,Wunderground v.1.15,2013-01-06 05:10:00,
2013-01-05 22:20:00,27.9,15.8,30.34,South,180,4.0,12.0,60,0.00,,,0.00,0,Wunderground v.1.15,2013-01-06 05:20:00,
2013-01-05 22:25:00,27.9,15.8,30.34,South,171,4.0,12.0,60,0.00,,,0.00,0,Wunderground v.1.15,2013-01-06 05:25:00,
2013-01-05 22:30:00,27.8,15.7,30.34,South,171,4.0,12.0,60,0.00,,,0.00,0,Wunderground v.1.15,2013-01-06 05:30:00,
2013-01-05 22:35:00,27.7,15.6,30.34,South,175,4.0,12.0,60,0.00,,,0.00,0,Wunderground v.1.15,2013-01-06 05:35:00,
2013-01-05 22:40:00,27.5,15.4,30.34,South,174,4.0,12.0,60,0.00,,,0.00,0,Wunderground v.1.15,2013-01-06 05:40:00,
2013-01-05 22:45:00,27.4,15.7,30.35,South,174,4.0,12.0,61,0.00,,,0.00,0,Wunderground v.1.15,2013-01-06 05:45:00,
2013-01-05 22:55:00,27.1,15.4,30.35,South,174,4.0,12.0,61,0.00,,,0.00,0,Wunderground v.1.15,2013-01-06 05:55:00,
2013-01-05 23:00:00,27.0,15.3,30.34,South,174,3.0,12.0,61,0.00,,,0.00,0,Wunderground v.1.15,2013-01-06 06:00:00,
2013-01-05 23:05:00,26.8,15.1,30.35,South,174,3.0,12.0,61,0.00,,,0.00,0,Wunderground v.1.15,2013-01-06 06:05:00,
2013-01-05 23:10:00,26.8,15.1,30.35,South,174,3.0,3.0,61,0.00,,,0.00,0,Wunderground v.1.15,2013-01-06 06:10:00,
2013-01-05 23:15:00,26.8,14.8,30.35,South,174,3.0,12.0,60,0.00,,,0.00,0,Wunderground v.1.15,2013-01-06 06:15:00,
2013-01-05 23:25:00,26.9,14.5,30.35,South,173,4.0,12.0,59,0.00,,,0.00,0,Wunderground v.1.15,2013-01-06 06:25:00,
2013-01-05 23:30:00,26.9,14.5,30.35,South,173,2.0,2.0,59,0.00,,,0.00,0,Wunderground v.1.15,2013-01-06 06:30:00,
2013-01-05 23:35:00,26.4,14.4,30.34,South,173,1.0,12.0,60,0.00,,,0.00,0,Wunderground v.1.15,2013-01-06 06:35:00,
2013-01-05 23:40:00,25.7,14.5,30.34,South,173,0.0,12.0,62,0.00,,,0.00,0,Wunderground v.1.15,2013-01-06 06:40:00,
2013-01-05 23:45:00,25.3,14.5,30.34,South,173,0.0,12.0,63,0.00,,,0.00,0,Wunderground v.1.15,2013-01-06 06:45:00,
2013-01-05 23:50:00,25.0,14.5,30.34,South,173,0.0,12.0,64,0.00,,,0.00,0,Wunderground v.1.15,2013-01-06 06:50:00,
2013-01-05 23:55:00,24.9,14.4,30.34,South,173,0.0,12.0,64,0.00,,,0.00,0,Wunderground v.1.15,2013-01-06 06:55:00,